◎P/1999 RE70の軌道と予報位置です    [From JSGA Web News No. 68]



JSGA Web News No. 68                                               2006 Apr. 26



ティミス族小惑星 (118401) = 1999 RE70が彗星と判明

 メイン・ベルトを運行するティミス族小惑星(a= 3.1 AU,e= 0.15,i= 1゚)に

属する133P/Elst-Pizarro = (7968)やP/2005 U1 (Read)に彗星活動が見られるように

他の同族の小惑星にもその活動があるのではないかという仮定のもとで,Gemini

North 望遠鏡でサーベイ調査を行なっていたハワイ大学の観測グループは,この番号

登録小惑星 (118401)にも,彗星としての活動があることを見つけた.彼らの2005年

11月26日に行なわれた観測によると,この小惑星には,東に7"ほどの尾が見られた.

引続き2005年12月に行なわれた確認観測でも,この小惑星には,淡いコマと東に9"ほ

どの扇形の尾が認められ,この小惑星には,彗星としての活動があることが判明した

(IAUC 8704).

 なお,この小惑星は,LINEARサーベイで1999年9月7日にみずがめ座を撮影したフ

レーム上の次の位置に発見された19等級の小惑星で,メイン・ベルト帯を動く,何の

変哲もないティミス族の小惑星であった.番号登録前に小惑星には,小惑星2001 AR7

との同定が見つかっている.今後,このような通常の小惑星にも,彗星としての活動

のあるものが見つかってくるだろう.そして,その1つは,(3431)であって欲しい.

a以外は,ティミス族とちょっと違うが・・・.



              1999 UT             α     (2000)     δ             Mag.

              Sept. 7.34150   23h 07m 27s.45   -05゚ 38' 35".2      19.1



  次の軌道は,1999年から2006年までに行なわれた5回の衝での 155個の観測から計

算した.平均残差は0".53.

               。

       Mo=  23.9168                Epoch = 2006 Mar.  6.0 TT

       ω =  36.1485                   e =   0.192452          H = 15.0

       Ω = 346.5864    (2000.0)       a =   3.196184 AU       G =  0.15

       i =   0.2379                   n゚=   0.1724870

       q =   2.581071 AU              P =   5.71 年



今後の予報位置:

 この小惑星の観測の再開は,今年末以降となる.



2006/2007    α  (2000) δ      △      r     日々運動   Elong.  Phase   V  

  0h TT     h  m       。  ,        AU      AU    ,  PA 。     。      。      等

Nov.  1   08 45.05  +18 16.1    2.889   3.048   8.9/105    89.6   19.0   20.7

     11   08 51.09  +17 52.7    2.766   3.066   6.0/105    98.1   18.6   20.6

     21   08 55.13  +17 36.7    2.646   3.085   2.7/105   107.2   17.8   20.5

Dec.  1   08 56.99  +17 29.4    2.532   3.104   0.7/289   116.8   16.5   20.4

     11   08 56.52  +17 31.7    2.429   3.123   4.2/286   127.1   14.6   20.2

     21   08 53.69  +17 43.5    2.341   3.142   7.5/286   138.0   12.1   20.1

     31   08 48.62  +18 03.9    2.274   3.161  10.2/285   149.4    9.1   19.9

Jan. 10   08 41.73  +18 30.5    2.232   3.179  11.9/285   161.3    5.7   19.7

     20   08 33.60  +19 00.4    2.218   3.198  12.4/284   173.5    2.0   19.5

     30   08 25.08  +19 29.9    2.235   3.216  11.6/283   174.3    1.7   19.5

Feb.  9   08 17.06  +19 55.9    2.281   3.235   9.7/282   162.2    5.3   19.8

     19   08 10.30  +20 16.5    2.356   3.253   7.0/282   150.5    8.6   20.0

Mar.  1   08 05.42  +20 30.4    2.456   3.271   3.9/281   139.2   11.4   20.2

     11   08 02.72  +20 37.4    2.576   3.289   0.6/274   128.6   13.7   20.4

     21   08 02.27  +20 37.8    2.713   3.306   2.5/104   118.5   15.3   20.6

     31   08 04.01  +20 31.9    2.861   3.324   5.3/103   109.0   16.5   20.8





軌道と残差:

 

(118401) 1999 RE70

Epoch 2006 Mar. 6.0 TT = JDT 2453800.5                  Nakano

M  23.91681              (2000.0)            P               Q

n   0.17248703     Peri.   36.14851     +0.92230188     -0.38646903

a   3.1961838      Node   346.58636     +0.35359817     +0.84485670

e   0.1924522      Incl.    0.23789     +0.15597298     +0.36994438

P   5.71           H   15.0           G   0.15           U   1

Residuals in seconds of arc 

990817 691  0.2-  0.5+    050926 691  0.2+  0.0     051021 644  0.1+  0.2+  

990817 691  0.0   0.4+    050926 691  0.2+  0.1-    051021 644  0.1+  0.3+  

990817 691  0.0   0.3+    050929 699  0.7+  0.0     051021 644  0.1+  0.1+  

990907 704  0.1+  0.2-    050929 699  0.9-  0.1+    051022 703  0.3-  0.4+  

990907 704  0.2-  1.3-    050929 699  0.3-  0.6+    051022 703  0.5-  0.4+  

990907 704  0.3+  0.1+    050929 699  0.4-  0.5-    051022 703  0.6+  0.3+  

990907 704  1.0-  0.2+    050929 699  0.3+  0.6-    051022 703  0.4+  0.2+  

990907 704  0.5-  0.0     050929 699  0.4+  0.2+    051024 699  0.2-  0.5+  

990909 704  0.5+  0.6-    050929 699  0.0   0.5+    051024 699  0.3+  0.6-  

990909 704  0.0   1.2-    050929 699  0.2+  0.5-    051024 699  0.0   0.3-  

990909 704  0.2+  0.3-    050930 G96  1.0+  0.2-    051024 699  0.7+  0.7+  

990909 704  0.4-  1.0-    050930 G96  0.7+  0.1-    051027 691  0.5-  0.1+  

990909 704  0.7+  0.1-    050930 G96  1.0+  0.2-    051027 691  0.3+  0.1+  

990910 704  0.1-  0.2-    050930 G96  0.8+  0.3-    051027 691  0.2+  0.0   

990910 704  0.4-  0.7+    051003 703  0.5-  0.5+    051027 G96  0.0   0.2-  

990910 704  0.5+  1.2-    051003 703  0.5+  0.2-    051027 G96  0.0   0.2-  

990914 704  1.9+  0.8-    051003 703  1.2-  0.3-    051027 G96  0.1+  0.1-  

990914 704  0.4+  0.4+    051003 703  0.4-  0.4-    051027 G96  0.1+  0.1-  

990914 704  0.5+  0.1+    051006 699  0.2+  0.2-    051028 H51  0.5+  0.0   

990914 704  0.0   0.4-    051006 699  0.6-  0.1+    051028 H51  0.5+  0.3-  

990914 704  0.4-  1.3-    051006 699  0.8-  0.1+    051028 H51  0.3+  0.1-  

991018 691  0.3-  0.3+    051006 699  0.7-  0.3-    051101 704  0.5+  0.3+  

991018 691  0.0   0.9+    051007 704  0.3+  0.0     051101 704  0.5-  0.7-  

991018 691  0.1+  0.4+    051007 704  0.1-  0.3-    051101 704  1.4+  0.7-  

010102 704  0.9+  0.6+    051007 691  0.1-  0.3-    051104 704  0.4+  0.6+  

010102 704  0.4-  0.2+    051007 704  0.2-  0.3+    051104 704  0.1-  0.1-  

010102 704  0.4-  0.4-    051007 704  0.4-  0.2+    051104 704  0.5+  0.4+  

010103 704  0.8+  0.1-    051007 691  0.0   0.2-    051105 704  0.3+  0.5+  

010103 704  0.2-  0.8-    051007 704  0.1+  0.0     051105 704  0.6+  0.5+  

010103 704  0.5+  0.4-    051007 691  0.1-  0.3-    051105 704  0.1-  0.9+  

010103 704  0.1-  0.1-    051011 704  1.5-  0.3-    051105 704  0.8-  0.1-  

010103 704  0.6-  0.3+    051011 704  1.4-  0.2-    051105 704  0.9-  0.3-  

020212 691  0.0   0.6-    051011 704  0.2-  0.3-    051221 703  1.0+  0.3-  

020212 691  0.2+  0.3+    051011 704  0.6-  0.9+    051221 703  0.1+  0.5-  

020212 691  0.1-  0.1-    051013 704  0.5-  1.2+    051221 703  0.3+  0.3-  

020311 691  0.2-  0.4+    051013 704  0.6-  0.2+    051221 703  0.0   0.4-  

020311 691  0.4-  0.4+    051013 704  0.2-  0.1-    051222 644  0.3+  0.0   

020311 691  0.2-  0.6+    051013 704  0.1-  0.5+    051222 644  0.2+  0.2+  

030510 691  0.8+  0.9+    051013 704  0.1-  1.0+    051222 644  0.3+  0.1+  

030510 691  0.4+  1.3+    051013 704  0.8-  0.6+    060105 G96  0.2+  0.4-  

030510 691  0.9+  1.1+    051013 704  0.7-  0.3+    060105 G96  0.2+  0.5-  

050915 703  0.8+  0.5+    051013 704  0.6-  0.8+    060105 G96  0.2+  0.3-  

050915 703  0.0   0.1-    051013 704  0.4-  0.6+    060105 G96  0.2+  0.2-  

050915 703  0.5-  0.6+    051013 704  0.4-  0.6+    060207 G96  0.4-  0.3-  

050915 703  0.3+  0.6-    051014 704  0.6+  1.0+    060207 G96  0.1-  0.8-  

050924 461  0.2+  0.4+    051014 704  2.0-  0.6+    060207 G96  0.7+  0.7-  

050924 461  0.2-  0.1+    051014 704  0.8-  0.8+    060207 G96  0.8+  0.0   

050924 703  0.2-  0.3-    051014 704  1.5-  1.0+    060224 G96  0.2-  0.2-  

050924 703  0.1+  0.2-    051014 704  1.2+  0.5-    060224 G96  0.2-  0.1+  

050924 703  0.2+  0.2+    051021 644  0.2+  0.2+    060224 G96  0.3+  0.2-  

050924 703  0.7-  0.3-    051021 644  0.4+  0.1-    060224 G96  0.2+  0.1+  

050926 691  0.2+  0.1+    051021 644  0.1+  0.0                             

 

日本スペースガード協会            (c) Copyright JSGA 2006           中野 主一

NAKANO

         **** Don't distribute anyone except personal use only ****

                (C) Copyright 2006 OAA/ComputingSection

write mail from CFAD0::NAKANO on 2006-05-02 02:10:47(JST).



    P/1999 RE70 = (118401)

Epoch 2005 Nov. 6.0 TT = JDT 2453680.5  

T 2005 Oct. 18.41146 TT                                 Nakano

q   2.5811185            (2000.0)            P               Q

n   0.17246991     Peri.   36.14561     +0.92218042     -0.38675878

a   3.1963953      Node   346.60727     +0.35386387     +0.84474491

e   0.1924908      Incl.    0.23794     +0.15608857     +0.36989685

P   5.71

From 155 observations 1999-2006, mean residual 0".53.

                           

NAKANO

         **** Don't distribute anyone except personal use only ****

                (C) Copyright 2006 OAA/ComputingSection

write mail from CFAD0::NAKANO on 2006-04-29 05:50:47(JST).









戻ります。